Torna al catalogo

FENGYUN 1C DEB

AttivoPO
NORAD 31623·DEBRIS·🇨🇳 China

Lanciato May 10, 1999 da Taiyuan Satellite Launch Center

Loading…

Prossimi Passaggi (prossime 24 ore)

TLE

AggiornatoSource: Space-Track

Epoca: Sep 11, 2026, 09:46 UTC

1 31623U 99025CAD 26254.40716792  .00000179  00000-0  16837-3 0  9990
2 31623  97.6327  59.5740 0192967 325.4529  33.4213 13.82819359616889

Traccia FENGYUN 1C DEB in tempo reale con AllMySat

Download on the App Store